Regional Weather Roundup
Issued by NWS

Home | Current Version | Previous Version | Graphics & Text | Print | Product List | Glossary Off
Versions: 1 2 3 4 5 6 7 8 9 10 11 12 13 14 15 16 17 18 19 20 21 22 23 24 25 26 27 28

000
ASUS45 KSLC 181210
RWRUT

UTAH REGIONAL WEATHER ROUNDUP
NATIONAL WEATHER SERVICE SALT LAKE CITY UT
600 AM MDT WED OCT 18 2017

UTZ001>011-023>025-181300-

NORTHERN UTAH

CITY           SKY/WX    TMP DP  RH WIND       PRES   REMARKS
BRIGHAM CITY   CLEAR     33  26  73 NW6       30.18S WCI  28
HILL AFB       CLEAR     44  15  31 E20       30.17S
LOGAN          CLEAR     29  23  78 NE8       30.19S WCI  21
OGDEN          CLEAR     41  20  43 S9        30.16F
SALT LAKE CITY MOCLDY    42  33  70 SE7       30.16S
TOOELE VALLEY  PTCLDY    36  28  75 E6        30.18R WCI  31
WENDOVER       PTCLDY    34  21  59 NE5       30.18R WCI  30
WEST JORDAN    CLEAR     39  26  61 CALM      30.18S

$$

UTZ011>015-024>027-181300-

CENTRAL/NORTHEAST UTAH

CITY           SKY/WX    TMP DP  RH WIND       PRES   REMARKS
PROVO AIRPORT  CLEAR     36  22  56 S7        30.18S WCI  30
MOAB/CANYONLAN MOCLDY    40  14  34 W5        30.17R
DELTA          MOCLDY    36  23  60 NE8       30.17S WCI  29
PRICE          PTCLDY    40  11  30 N8        30.21R WCI  34
RICHFIELD      CLEAR     34  28  80 CALM      30.22R
ROOSEVELT      CLOUDY    30  21  69 W6        30.22S WCI  24
VERNAL         CLOUDY    34  17  50 N3        30.20R

$$

UTZ013>016-019>022-027-181300-

SOUTHERN UTAH

CITY           SKY/WX    TMP DP  RH WIND       PRES   REMARKS
BRYCE CANYON   MOCLDY    37  18  46 W7        30.30R WCI  32
CEDAR CITY     PTCLDY    41  21  44 E5        30.17R
MILFORD        PTCLDY    40  14  34 SW3       30.16S
ST GEORGE      SUNNY     52  22  30 NW3       30.08R
HANKSVILLE     MOCLDY    34  18  51 CALM      30.20R
KANAB          CLEAR     43  21  42 NE7       30.21R
BLANDING         N/A     40  12  31 NW3       30.29S

$$

REGIONAL REPORTS     COLORADO/ARIZONA

CITY           SKY/WX    TMP DP  RH WIND       PRES   REMARKS
CRAIG, CO      CLOUDY    23  16  74 CALM      30.25R
GRAND JUNCTION CLOUDY    38  15  39 E6        30.21R WCI  33
RIFLE, CO      CLOUDY    33  18  53 CALM      30.27R
MONTROSE, CO   CLOUDY    32  15  49 S8        30.27R WCI  25
CORTEZ, CO     CLOUDY    30  16  56 NE6       30.25S WCI  24
COLORADO CITY    N/A     41  27  56 CALM      30.18S
PAGE, AZ       MOCLDY    51  20  29 W5        30.14R
GRAND CANYON   PTCLDY    33  18  53 CALM      30.26S HAZE
KINGMAN, AZ    CLEAR     53  26  35 SE6       30.05S
FLAGSTAFF, AZ  PTCLDY    36  23  59 CALM      30.28R

$$

REGIONAL REPORTS    NEVADA/IDAHO/WYOMING

CITY           SKY/WX    TMP DP  RH WIND       PRES   REMARKS
LAS VEGAS, NV  PTCLDY    62  19  19 S5        30.00R
ELY, NY        MOCLDY    30   1  29 S10       30.23S WCI  21
ELKO, NV       CLOUDY    29  15  56 E3        30.22S
POCATELLO, ID  CLOUDY    36  28  73 NE7       30.17R WCI  30
BURLEY, ID     PTCLDY    40  22  48 W6        30.14S
FORT BRIDGER,    N/A     45   6  19 SW10      30.28R
EVANSTON, WY   CLOUDY    41   8  25 SW6       30.25F
ROCK SPRINGS,  CLOUDY    42   5  21 SW16      30.21R
KEMMERER, WY   CLOUDY    36   9  32 SW3       30.25R

$$




USA.gov is the U.S. government's official web portal to all federal, state and local government web resources and services.